Tracking 17828 objects as of 31-July-2016
HD Live streaming from Space Station
objects crossing your sky now

SL-16 DEB

Track SL-16 DEB now!
10-day predictions


NORAD ID: 20628
Int'l Code: 1990-046E
Perigee: 844.5 km
Apogee: 1,156.7 km
Inclination: 71.0 °
Period: 105.0 minutes
Semi major axis: 7371 km
RCS: 0.0854 m2 (small)
Launch date: May 22, 1990
Source: Commonwealth of Independent States (former USSR) (CIS)
Launch site: TYURATAM MISSILE AND SPACE COMPLEX (TTMTR)

Note: This is SATELLITE DEBRIS
Your satellite tracking list
Your tracking list is empty





NASA's NSSDC Master Catalog

Two Line Element Set (TLE):
1 20628U 90046E   16212.88490880  .00000015  00000-0  55789-4 0  9998
2 20628  70.9778  39.5925 0211768 270.5810  87.1030 13.71715816310833
Source of the keplerian elements: AFSPC

N2YO: 906